Location: F?ge?el
(45.8833°N, 22.5833°E)
Time: 12:58:46
(UTC+00:00)

SJ-12 - Pass Details

Date: 17 November 2025
Orbit: 517 x 528 km, 97.8° (Epoch: 06 December)

Event Time Altitude Azimuth Distance (km) Brightness Sun altitude
Rises 15:41:12 0° 153° (SSE) 2,643 7.2 -8.0°
Reaches altitude 10° 15:43:20 10° 148° (SSE) 1,757 6.3 -8.4°
Maximum altitude 15:47:01 50° 72° (ENE) 672 3.9 -9.0°
Drops below altitude 10° 15:50:41 10° 357° (N) 1,764 6.3 -9.6°
Sets 15:52:50 0° 352° (N) 2,656 7.2 -10.0°
